Content
SEND FEEDBACK

Daily
Averages
Monthly
Summary
United States of America

EUREKA SPRINGS, ARKANSAS


Home > North America > United States > Arkansas
Elevation: 432 meters     Latitude: 36 25N     Longitude: 093 46W

WEATHER
 
SELECT A DAY
Number of Records: 354,008;   Date Range: 1/1/95 - 8/12/14
 
SHARE

PRINT THIS DATA

[ ← Previous Day ]
WEATHER ALMANAC - 31 JANUARY, 2013
[ Next Day → ]
[ °F ]   °C
Weather ElementAverageHighLow
Temperature-1.4 °C7.8 °C (12:57 pm)-7.8 °C (11:57 pm)
Dewpoint-6.2 °C-2.8 °C (12:57 pm)-11.7 °C (10:57 pm)
Humidity71.7 %88 % (1:57 am)47 % (12:57 pm)
Barometer1023.4 hPa1031.2 hPa (10:57 pm)1017.6 hPa (4:57 am)
Wind Speed15.4 km/h25.9 km/h (12:57 pm)
Wind Gust38.9 km/h (1:57 pm)
Weather ElementAverage
Visibility16.1 km
Wind DirectionWNW (288.4 °)

Weather ElementTotal
Precipitation---
Heating Degree Days18.3 (Base 18.3)
Averaged from 25 records on 31 January, 2013
WEATHER CONDITIONS BREAKOUT
WIND DIRECTION BREAKOUT
WEATHER BY HOUR - 31 JANUARY, 2013
[ °F ]   °C
Local TimeTemperatureDewpointHumidityBarometerVisibilityWind DirectionWind SpeedGust SpeedPrecipitationEventsConditions
1:57 AM-5 °C-6.7 °C88 %1018.6 hPa16.1 kmSSW (210°)11.1 km/hClear
3:57 AM-5 °C-6.7 °C88 %1017.9 hPa16.1 kmSSW (210°)9.3 km/hClear
4:57 AM-5 °C-6.7 °C88 %1017.6 hPa16.1 kmSouth (180°)9.3 km/hClear
5:57 AM-5 °C-6.7 °C88 %1017.6 hPa16.1 kmSouth (180°)11.1 km/hClear
6:57 AM-2.8 °C-5.6 °C81 %1017.9 hPa16.1 kmSSW (210°)16.7 km/hClear
7:57 AM-1.1 °C-5 °C75 %1017.9 hPa16.1 kmSSW (210°)22.2 km/hClear
8:57 AM1.1 °C-5 °C64 %1019 hPa16.1 kmSSW (210°)18.5 km/hClear
9:57 AM3.3 °C-3.9 °C60 %1020 hPa16.1 kmWest (260°)13 km/hClear
10:57 AM6.1 °C-3.9 °C49 %1020.7 hPa16.1 kmWest (280°)20.4 km/hMostly Cloudy
11:57 AM6.7 °C-3.3 °C49 %1020.7 hPa16.1 kmWest (280°)22.2 km/hPartly Cloudy
12:57 PM7.8 °C-2.8 °C47 %1020.3 hPa16.1 kmWNW (300°)25.9 km/hClear
1:57 PM6.1 °C-3.3 °C51 %1021 hPa16.1 kmNNW (330°)22.2 km/h38.9 km/hPartly Cloudy
2:57 PM5 °C-3.9 °C53 %1022 hPa16.1 kmNW (310°)22.2 km/hMostly Cloudy
4:57 PM-1.1 °C-4.4 °C79 %1025.7 hPa16.1 kmNNW (340°)20.4 km/h31.5 km/hOvercast
5:01 PM-1 °C-4 °C80 %1024.4 hPa14.5 kmNorth (350°)11.1 km/h27.8 km/hOvercast
5:57 PM-2.2 °C-5 °C81 %1026.8 hPa16.1 kmNNW (330°)18.5 km/h0 mmOvercast
6:02 PM-2 °C-6 °C74 %1025.4 hPa16.1 kmNNW (330°)18.5 km/hOvercast
6:40 PM-3 °C-6 °C80 %1026.1 hPa16.1 kmNW (320°)13 km/hOvercast
6:57 PM-2.8 °C-5.6 °C81 %1028.1 hPa16.1 kmNW (310°)14.8 km/hOvercast
7:37 PM-4 °C-8 °C74 %1027.4 hPa16.1 kmNorth (350°)14.8 km/hScattered Clouds
7:57 PM-4.4 °C-8.9 °C71 %1029.5 hPa16.1 kmNNW (330°)16.7 km/hClear
8:57 PM-5.6 °C-9.4 °C75 %1030.5 hPa16.1 kmNorth (350°)9.3 km/hClear
9:57 PM-6.1 °C-10 °C74 %1030.8 hPa16.1 kmNorth (350°)7.4 km/hClear
10:57 PM-6.7 °C-11.7 °C68 %1031.2 hPa16.1 kmNNW (330°)9.3 km/hClear
11:57 PM-7.8 °C-11.7 °C74 %1031.2 hPa16.1 kmNorth (350°)9.3 km/hClear
Hourly data recorded from KROG, located 0 kilometers away from Eureka Springs, Arkansas







STORIES FROM OUR PARTNERS